This demonstration page uses our WeatherBlox Daily Observations layout. Learn more.

Left ArrowRight Arrow

39.01783, -85.05884

Hourly Observations for January 1, 2021

Temp ( °F °C ) Dew Point ( °F °C ) Humidity (%) Winds ( mph kmh ) Pressure ( in mb ) Visibility ( mi km ) Precip ( " mm )
12:52 am 00:52 Cloudy 31 -0.6 26 -3.3 82 82 ENE 14 22 30.28 1025 7 11 0.00 0.00
1:38 am 01:38 Cloudy 31 -0.6 26 -3.3 82 82 ENE 13 20 30.29 1026 7 11 0.00 0.00
1:52 am 01:52 Mostly Cloudy 31 -0.6 26 -3.3 82 82 ENE 12 19 30.27 1025 7 11 0.00 0.00
2:52 am 02:52 Cloudy 32 0 26 -3.3 79 79 ENE 22 35 30.22 1024 8 13 0.00 0.00
3:52 am 03:52 Cloudy with Light Rain 32 0 27 -2.8 82 82 ENE 13 20 30.23 1024 7 11 0.00 0.00
4:52 am 04:52 Cloudy with Light Rain 32 0 27 -2.8 82 82 ENE 12 19 30.19 1022 7 11 0.00 0.00
5:52 am 05:52 Cloudy with Light Freezing Rain 32 0 28 -2.2 85 85 E 15 24 30.14 1021 6 10 0.03 0.76
6:33 am 06:33 Cloudy with Light Freezing Rain 32 0 29 -1.7 88 88 ENE 18 30 30.14 1021 3 5 0.07 1.78
6:52 am 06:52 Cloudy with Rain 32 0 29 -1.7 88 88 ENE 14 22 30.11 1020 3 5 0.09 2.29
7:26 am 07:26 Cloudy with Rain 32 0 30 -1.1 92 92 ENE 14 22 30.12 1020 3 4 0.09 2.29
7:52 am 07:52 Cloudy with Rain 33 0.6 30 -1.1 89 89 ENE 17 28 30.05 1018 3 4 0.15 3.81
8:04 am 08:04 Cloudy with Rain 33 0.6 30 -1.1 89 89 E 14 22 30.08 1019 3 5 0.00 0.00
8:20 am 08:20 Cloudy with Rain 33 0.6 31 -0.6 92 92 E 10 17 30.09 1019 2 3 0.05 1.27
8:52 am 08:52 Cloudy with Rain 33 0.6 31 -0.6 92 92 ENE 14 22 30.05 1018 2 3 0.25 6.35
9:14 am 09:14 Cloudy with Rain 33 0.6 31 -0.6 92 92 E 12 19 30.05 1018 1 2 0.11 2.79
9:37 am 09:37 Cloudy with Rain 34 1.1 31 -0.6 89 89 E 14 22 30.04 1017 1 2 0.17 4.32
9:52 am 09:52 Cloudy with Rain 34 1.1 32 0 92 92 E 16 26 30.00 1016 2 2 0.23 5.84
10:31 am 10:31 Cloudy with Light Rain 35 1.7 33 0.6 93 93 E 10 17 30.02 1017 3 4 0.06 1.52
10:52 am 10:52 Cloudy with Light Rain 36 2.2 34 1.1 93 93 ESE 12 19 29.93 1014 3 4 0.10 2.54
11:09 am 11:09 Cloudy with Light Rain 37 2.8 34 1.1 89 89 ESE 6 9 29.97 1015 6 10 0.01 0.25
11:52 am 11:52 Cloudy with Light Rain 39 3.9 37 2.8 93 93 ESE 9 15 29.90 1013 3 5 0.02 0.51
12:06 pm 12:06 Cloudy with Rain 40 4.4 38 3.3 93 93 SE 15 24 29.90 1013 2 3 0.02 0.51
12:19 pm 12:19 Cloudy with Light Rain 40 4.4 38 3.3 93 93 ESE 10 17 29.88 1012 3 5 0.08 2.03
12:52 pm 12:52 Cloudy 42 5.6 39 3.9 89 89 SE 8 13 29.85 1011 10 16 0.08 2.03
1:52 pm 13:52 Cloudy 44 6.7 42 5.6 93 93 SE 12 19 29.81 1010 10 16 0.00 0.00
2:46 pm 14:46 Cloudy 46 8 45 7 93 93 ESE 13 20 29.79 1009 10 16 0.00 0.00
2:52 pm 14:52 Cloudy 47 8.3 44 6.7 90 90 SE 10 17 29.77 1008 10 16 0.00 0.00
3:03 pm 15:03 Mostly Cloudy 48 8.9 45 7.2 89 89 ESE 8 13 29.77 1008 10 16 0.00 0.00
3:23 pm 15:23 Cloudy 49 9.4 46 7.8 90 90 ESE 8 13 29.76 1008 10 16 0.00 0.00
3:39 pm 15:39 Mostly Cloudy 50 10 46 7.8 86 86 ESE 9 15 29.76 1008 10 16 0.00 0.00
3:52 pm 15:52 Mostly Cloudy 50 10 46 7.8 86 86 SE 10 17 29.74 1007 10 16 0.00 0.00
4:25 pm 16:25 Mostly Cloudy 50 10 46 7.8 86 86 E 7 11 29.74 1007 10 16 0.00 0.00
4:36 pm 16:36 Partly Cloudy 49 9.4 46 7.8 90 90 E 8 13 29.72 1007 10 16 0.00 0.00
4:52 pm 16:52 Partly Cloudy 48 8.9 46 7.8 93 93 E 7 11 29.71 1006 10 16 0.00 0.00
5:52 pm 17:52 Mostly Cloudy 49 9.4 46 7.8 90 90 ESE 6 9 29.68 1005 10 16 0.00 0.00
6:13 pm 18:13 Cloudy with Light Rain 51 10.6 48 8.9 89 89 SE 10 17 29.68 1005 5 8 0.00 0.00
6:31 pm 18:31 Cloudy with Rain 52 11.1 49 9.4 89 89 SE 9 15 29.67 1005 4 6 0.07 1.78
6:41 pm 18:41 Cloudy with Heavy Rain 51 10.6 48 8.9 89 89 WNW 28 44 29.70 1006 3 4 0.09 2.29
6:50 pm 18:50 Cloudy with Heavy Rain 52 11 48 9 88 88 W 16 26 29.72 1006 3 4 0.19 4.83
6:52 pm 18:52 Cloudy with Light Rain 51 10.6 49 9.4 92 92 W 16 26 29.71 1006 4 6 0.23 5.84
7:25 pm 19:25 Cloudy 50 10 47 8.3 89 89 WNW 21 33 29.75 1007 10 16 0.01 0.25
7:52 pm 19:52 Cloudy 50 10 45 7.2 83 83 W 25 41 29.76 1008 10 16 0.01 0.25
8:14 pm 20:14 Cloudy 49 9.4 45 7.2 86 86 W 22 35 29.77 1008 10 16 0.00 0.00
8:52 pm 20:52 Cloudy 49 9.4 44 6.7 83 83 W 16 26 29.78 1009 10 16 0.00 0.00
9:17 pm 21:17 Cloudy 49 9.4 43 6.1 80 80 WSW 12 19 29.79 1009 10 16 0.00 0.00
9:52 pm 21:52 Cloudy 48 8.9 43 6.1 83 83 WSW 12 19 29.80 1009 10 16 0.00 0.00
10:52 pm 22:52 Cloudy 46 7.8 38 3.3 73 73 WSW 18 30 29.83 1010 10 16 0.00 0.00
11:52 pm 23:52 Cloudy 45 7.2 38 3.3 77 77 WSW 15 24 29.85 1011 10 16 0.00 0.00

Powered by AerisWeather